| time (UTC) | temp C | wind direction | speed KPH | gust KPH | rain 1hr cm | rain 24hr cm | rain mn cm | humidity % | barometer mb |
| 20260831131545 | 25 | 0 | 0.0 | 1.6 | 0.00 | 0.00 | 0.00 | 67 | 1018.5 |
| 20260831130057 | 25 | 0 | 0.0 | 1.6 | 0.00 | 0.00 | 0.00 | 68 | 1018.4 |
| 20260831124545 | 24 | 0 | 0.0 | 0.0 | 0.00 | 0.00 | 0.00 | 69 | 1018.4 |
| 20260831123055 | 23 | 0 | 0.0 | 1.6 | 0.00 | 0.00 | 0.00 | 70 | 1018.0 |
| 20260831121554 | 23 | 0 | 0.0 | 0.0 | 0.00 | 0.00 | 0.00 | 71 | 1017.8 |
| 20260831120046 | 23 | 0 | 0.0 | 1.6 | 0.00 | 0.00 | 0.00 | 71 | 1017.7 |
| 20260831114557 | 23 | 0 | 0.0 | 1.6 | 0.00 | 0.00 | 0.00 | 70 | 1017.3 |
| 20260831113053 | 23 | 0 | 0.0 | 1.6 | 0.00 | 0.00 | 0.00 | 70 | 1017.2 |
| 20260831111550 | 23 | 215 | 0.0 | 1.6 | 0.00 | 0.00 | 0.00 | 69 | 1017.2 |
| 20260831110057 | 23 | 210 | 0.0 | 1.6 | 0.00 | 0.00 | 0.00 | 68 | 1017.1 |
| 20260831104550 | 23 | 0 | 0.0 | 1.6 | 0.00 | 0.00 | 0.00 | 67 | 1017.0 |
| 20260831103046 | 24 | 0 | 0.0 | 3.2 | 0.00 | 0.00 | 0.00 | 66 | 1016.9 |
| 20260831101556 | 24 | 0 | 0.0 | 3.2 | 0.00 | 0.00 | 0.00 | 65 | 1016.9 |
| 20260831100050 | 25 | 0 | 0.0 | 6.4 | 0.00 | 0.00 | 0.00 | 64 | 1016.8 |
| 20260831094545 | 24 | 225 | 0.0 | 6.4 | 0.00 | 0.00 | 0.00 | 64 | 1016.8 |
| 20260831093046 | 24 | 0 | 0.0 | 4.8 | 0.00 | 0.00 | 0.00 | 63 | 1016.9 |
| 20260831091548 | 25 | 186 | 0.0 | 8.0 | 0.00 | 0.00 | 0.00 | 62 | 1016.7 |
| 20260831090045 | 24 | 135 | 0.0 | 3.2 | 0.00 | 0.00 | 0.00 | 62 | 1016.5 |
| 20260831084556 | 24 | 0 | 0.0 | 3.2 | 0.00 | 0.00 | 0.00 | 62 | 1016.6 |
| 20260831083056 | 24 | 0 | 0.0 | 1.6 | 0.00 | 0.00 | 0.00 | 62 | 1016.6 |
| 20260831081545 | 24 | 207 | 0.0 | 0.0 | 0.00 | 0.00 | 0.00 | 62 | 1016.4 |
| 20260831080057 | 24 | 0 | 0.0 | 1.6 | 0.00 | 0.00 | 0.00 | 61 | 1016.2 |
| 20260831074547 | 25 | 0 | 0.0 | 1.6 | 0.00 | 0.00 | 0.00 | 60 | 1016.3 |
| 20260831073052 | 25 | 0 | 0.0 | 1.6 | 0.00 | 0.00 | 0.00 | 60 | 1016.3 |
| 20260831071547 | 25 | 188 | 0.0 | 3.2 | 0.00 | 0.00 | 0.00 | 59 | 1016.1 |
| 20260831070047 | 25 | 0 | 0.0 | 4.8 | 0.00 | 0.00 | 0.00 | 59 | 1016.1 |
| 20260831064605 | 26 | 143 | 0.0 | 6.4 | 0.00 | 0.00 | 0.00 | 59 | 1016.0 |
| 20260831063048 | 26 | 0 | 0.0 | 4.8 | 0.00 | 0.00 | 0.00 | 59 | 1016.1 |
| 20260831061546 | 26 | 0 | 0.0 | 3.2 | 0.00 | 0.00 | 0.00 | 59 | 1016.2 |
| 20260831060059 | 26 | 141 | 0.0 | 4.8 | 0.00 | 0.00 | 0.00 | 60 | 1016.2 |
| 20260831054601 | 26 | 169 | 0.0 | 4.8 | 0.00 | 0.00 | 0.00 | 60 | 1016.4 |
| 20260831053046 | 26 | 0 | 0.0 | 3.2 | 0.00 | 0.00 | 0.00 | 60 | 1016.5 |
| 20260831051552 | 26 | 0 | 0.0 | 4.8 | 0.00 | 0.00 | 0.00 | 59 | 1016.5 |
| 20260831050051 | 27 | 0 | 0.0 | 4.8 | 0.00 | 0.00 | 0.00 | 59 | 1016.3 |
| 20260831044604 | 27 | 0 | 0.0 | 4.8 | 0.00 | 0.00 | 0.00 | 58 | 1016.3 |
| 20260831043044 | 27 | 127 | 0.0 | 4.8 | 0.00 | 0.00 | 0.00 | 58 | 1016.2 |
| 20260831041609 | 27 | 0 | 0.0 | 3.2 | 0.00 | 0.00 | 0.00 | 57 | 1016.0 |
| 20260831040049 | 27 | 200 | 0.0 | 4.8 | 0.00 | 0.00 | 0.00 | 56 | 1015.9 |
| 20260831034546 | 27 | 0 | 0.0 | 4.8 | 0.00 | 0.00 | 0.00 | 56 | 1015.7 |
| 20260831033051 | 27 | 139 | 0.0 | 1.6 | 0.00 | 0.00 | 0.00 | 55 | 1015.5 |
| 20260831031545 | 27 | 0 | 0.0 | 3.2 | 0.00 | 0.00 | 0.00 | 53 | 1015.5 |
| 20260831030058 | 27 | 0 | 0.0 | 3.2 | 0.00 | 0.00 | 0.00 | 53 | 1015.4 |
| 20260831024553 | 27 | 141 | 0.0 | 0.0 | 0.00 | 0.00 | 0.00 | 53 | 1015.1 |
| 20260831023046 | 27 | 0 | 0.0 | 0.0 | 0.00 | 0.00 | 0.00 | 53 | 1015.1 |
| 20260831021546 | 28 | 0 | 0.0 | 0.0 | 0.00 | 0.00 | 0.00 | 52 | 1014.7 |
| 20260831020055 | 28 | 0 | 0.0 | 0.0 | 0.00 | 0.00 | 0.00 | 51 | 1014.6 |
| 20260831014548 | 28 | 0 | 0.0 | 0.0 | 0.00 | 0.00 | 0.00 | 50 | 1014.5 |
| 20260831013052 | 30 | 0 | 0.0 | 0.0 | 0.00 | 0.00 | 0.00 | 48 | 1014.5 |
| 20260831011557 | 30 | 0 | 0.0 | 0.0 | 0.00 | 0.00 | 0.00 | 46 | 1014.4 |
| 20260831010049 | 31 | 0 | 0.0 | 0.0 | 0.00 | 0.00 | 0.00 | 44 | 1014.3 |
| 20260831004547 | 32 | 0 | 0.0 | 1.6 | 0.00 | 0.00 | 0.00 | 43 | 1014.4 |
| 20260831003054 | 33 | 0 | 0.0 | 1.6 | 0.00 | 0.00 | 0.00 | 41 | 1014.4 |
| 20260831001551 | 33 | 0 | 0.0 | 4.8 | 0.00 | 0.00 | 0.00 | 40 | 1014.4 |
| 20260831000049 | 34 | 195 | 0.0 | 6.4 | 0.00 | 0.00 | 0.00 | 38 | 1014.5 |
| 20260830234558 | 35 | 113 | 0.0 | 8.0 | 0.00 | 0.00 | 0.00 | 37 | 1014.5 |
| 20260830233054 | 35 | 203 | 0.0 | 8.0 | 0.00 | 0.00 | 0.00 | 36 | 1014.6 |
| 20260830231559 | 36 | 165 | 0.0 | 9.7 | 0.00 | 0.00 | 0.00 | 35 | 1014.6 |
| 20260830230049 | 36 | 224 | 1.6 | 8.0 | 0.00 | 0.00 | 0.00 | 34 | 1014.5 |
| 20260830224554 | 37 | 0 | 1.6 | 8.0 | 0.00 | 0.00 | 0.00 | 32 | 1014.6 |
| 20260830223057 | 38 | 163 | 0.0 | 8.0 | 0.00 | 0.00 | 0.00 | 32 | 1014.6 |
| 20260830221552 | 37 | 212 | 1.6 | 9.7 | 0.00 | 0.00 | 0.00 | 33 | 1014.7 |
| 20260830220050 | 37 | 0 | 0.0 | 6.4 | 0.00 | 0.00 | 0.00 | 33 | 1014.6 |
| 20260830214557 | 37 | 139 | 0.0 | 6.4 | 0.00 | 0.00 | 0.00 | 32 | 1014.7 |
| 20260830213051 | 38 | 210 | 1.6 | 9.7 | 0.00 | 0.00 | 0.00 | 30 | 1014.9 |
| 20260830211545 | 39 | 84 | 0.0 | 9.7 | 0.00 | 0.00 | 0.00 | 30 | 1014.9 |
| 20260830210047 | 39 | 154 | 1.6 | 6.4 | 0.00 | 0.00 | 0.00 | 30 | 1014.8 |
| 20260830204548 | 39 | 319 | 0.0 | 8.0 | 0.00 | 0.00 | 0.00 | 31 | 1015.1 |
| 20260830203047 | 38 | 129 | 0.0 | 14.5 | 0.00 | 0.00 | 0.00 | 31 | 1015.1 |
| 20260830201558 | 38 | 0 | 0.0 | 8.0 | 0.00 | 0.00 | 0.00 | 31 | 1015.4 |
| 20260830200043 | 38 | 243 | 3.2 | 11.3 | 0.00 | 0.00 | 0.00 | 33 | 1015.5 |
| 20260830194551 | 38 | 0 | 0.0 | 14.5 | 0.00 | 0.00 | 0.00 | 32 | 1015.7 |
| 20260830193049 | 38 | 226 | 3.2 | 14.5 | 0.00 | 0.00 | 0.00 | 33 | 1015.8 |
| 20260830191557 | 37 | 0 | 1.6 | 11.3 | 0.00 | 0.00 | 0.00 | 35 | 1015.8 |
| 20260830190051 | 37 | 95 | 1.6 | 12.9 | 0.00 | 0.00 | 0.00 | 35 | 1016.2 |
| 20260830184545 | 37 | 210 | 3.2 | 12.9 | 0.00 | 0.00 | 0.00 | 36 | 1016.3 |
| 20260830183058 | 38 | 251 | 1.6 | 9.7 | 0.00 | 0.00 | 0.00 | 36 | 1016.5 |
| 20260830181549 | 37 | 293 | 1.6 | 6.4 | 0.00 | 0.00 | 0.00 | 37 | 1016.6 |
| 20260830180058 | 36 | 304 | 0.0 | 16.1 | 0.00 | 0.00 | 0.00 | 38 | 1016.6 |
| 20260830174554 | 36 | 0 | 3.2 | 11.3 | 0.00 | 0.00 | 0.00 | 38 | 1016.7 |
| 20260830173055 | 36 | 0 | 1.6 | 12.9 | 0.00 | 0.00 | 0.00 | 39 | 1017.0 |
| 20260830171555 | 36 | 129 | 4.8 | 12.9 | 0.00 | 0.00 | 0.00 | 38 | 1017.2 |
| 20260830170047 | 36 | 158 | 1.6 | 9.7 | 0.00 | 0.00 | 0.00 | 39 | 1017.4 |
| 20260830164604 | 35 | 261 | 1.6 | 11.3 | 0.00 | 0.00 | 0.00 | 39 | 1017.4 |
| 20260830163053 | 35 | 177 | 3.2 | 12.9 | 0.00 | 0.00 | 0.00 | 40 | 1017.7 |
| 20260830161548 | 34 | 239 | 1.6 | 11.3 | 0.00 | 0.00 | 0.00 | 42 | 1017.6 |
| 20260830160048 | 33 | 212 | 0.0 | 11.3 | 0.00 | 0.00 | 0.00 | 43 | 1017.7 |
| 20260830154558 | 33 | 221 | 3.2 | 11.3 | 0.00 | 0.00 | 0.00 | 44 | 1017.6 |
| 20260830153053 | 32 | 184 | 0.0 | 11.3 | 0.00 | 0.00 | 0.00 | 45 | 1017.8 |
| 20260830151551 | 32 | 57 | 1.6 | 12.9 | 0.00 | 0.00 | 0.00 | 47 | 1017.7 |
| 20260830150045 | 31 | 127 | 1.6 | 8.0 | 0.00 | 0.00 | 0.00 | 50 | 1017.7 |
| 20260830144554 | 29 | 146 | 1.6 | 8.0 | 0.00 | 0.00 | 0.00 | 53 | 1017.9 |
| 20260830143048 | 28 | 157 | 1.6 | 9.7 | 0.00 | 0.00 | 0.00 | 55 | 1017.9 |
| 20260830141601 | 27 | 0 | 1.6 | 11.3 | 0.00 | 0.00 | 0.00 | 58 | 1018.0 |
| 20260830140053 | 26 | 193 | 3.2 | 14.5 | 0.00 | 0.00 | 0.00 | 60 | 1018.1 |
| 20260830134557 | 25 | 190 | 1.6 | 6.4 | 0.00 | 0.00 | 0.00 | 62 | 1018.0 |
| 20260830133105 | 24 | 152 | 0.0 | 6.4 | 0.00 | 0.00 | 0.00 | 64 | 1018.0 |